FENGYUN 1C DEB, 36230

Orbit data source: Space-Track

FENGYUN 1C DEB, 36230 is space debris in SSO originally from a launch on Mon, 10 May 1999 UTC launched from the Taiyaun Space Center, China (TSC). Fengyun 1C debris stems from the Chinese weather satellite Fengyun-1C, which was intentionally destroyed by a Chinese anti-satellite missile in 2007. This event dramatically increased the amount of space debris, with thousands of trackable fragments posing hazards to satellites and human spaceflight. The Fengyun 1C debris cloud has become a focal point in discussions about space sustainability and the need for international regulations to prevent the creation of new debris.

Loading next visibility...
Identifier
36230, 1999-025DVF
Orbit
SSO
Country
Flag of CNCN / PRC
Related business
Manufacturer
Unknown
Mission
Spacecraft
Bus & Motor
Unknown
Mass
Unknown
Launch date (UTC)
1999-05-10 (27 years ago)
Launch vehicle
Unknown
Launch site
Taiyaun Space Center, China (TSC)
Object type
Payload
Rocket body
Debris
Shape & HBR
Unknown shape, 0.1 m
Radar Cross Section
Small (<0.1 m²)

Expand to show TLE details & history
Last TLE update: 23 hours ago

TLE from 23 hours ago
0 FENGYUN 1C DEB
1 36230U 99025DVF 26062.40088925  .00002084  00000-0  18741-2 0  9998
2 36230  99.5174 142.4447 0212242 290.2284  67.6159 13.75605543629951
Epoch: 2026-03-03T09:37Z
TLE epoch observation values (Epoch: 2026-03-03T09:37:16.831Z)
Latitude
-0.00002°
Longitude
-163.05591°
Altitude
925.733 km
Speed
7.417 km/s
True Right ascension
09h 29m 46s
True Declination
0° 00' 00"
Sunlit
Object was in full shadow at epoch
Visualization orbit readout
Latitude
Unknown
Longitude
Unknown
Altitude
Unknown
Speed
Unknown
Apparent Right ascension
Unknown
Apparent Declination
Unknown
Sunlit
N/A
Visualization observer readout
Local Sidereal Time
12:33:57
Azimuth
Unknown
Elevation
Unknown
Doppler factor
Unknown
Orbital elements
Apogee altitude
1,132.873 km
Perigee altitude
820.669 km
Semi-major axis
7,354.908 km
Eccentricity
0.02122
Inclination
99.5174°
RAAN
142.4447°
Arg. of periapsis
290.2284°
True anomaly
69.88711°
Mean anomaly
67.6159°
Eccentric anomaly
68.74927°
Mean motion
3.44094 °/min
Orbital period
104.62 mins
BSTAR
0.0018741
Loading maneuver chart data...
Computing Atmospheric mass density...
Loading historical data...
Loading historical data...
Loading historical data...
Loading historical data...
Loading historical data...
Loading historical data...
Loading historical data...

Documentation

Showing up to 5 results
|